Location: Praha
(50.0830°N, 14.4670°E)
Time: 18:44:56
(UTC+02:00)

ISS - Pass Details

Date: 07 September 2024
Orbit: 414 x 424 km, 51.6° (Epoch: 16 September)

Event Time Altitude Azimuth Distance (km) Brightness Sun altitude
Exits shadow 04:40:33 27° 183° (S) 856 -2.5 -16.6°
Drops below altitude 10° 04:42:44 10° 149° (SSE) 1,514 -0.9 -16.3°
Sets 04:44:58 0° 139° (SE) 2,377 0.2 -16.0°
